Weather History for Thermopolis, WY

Change the Weather History Date:

Tuesday, November 6, 2012

  Actual Average (KWRL) Record (KWRL)
Temperature  
Mean Temperature 46 °F 36 °F  
Max Temperature 51 °F 50 °F 77 °F (1999)
Min Temperature 41 °F 22 °F 4 °F (2003)
Degree Days  
Heating Degree Days 19 29  
Month to date heating degree days 165  
Since 1 July heating degree days 1027  
Cooling Degree Days 0 0  
Month to date cooling degree days 0  
Year to date cooling degree days 535  
Moisture  
Dew Point 23 °F    
Average Humidity 40    
Maximum Humidity 57    
Minimum Humidity 22    
Precipitation  
Precipitation 0.00 in 0.02 in 0.53 in (1986)
Month to date precipitation 0.08  
Year to date precipitation 7.07  
Sea Level Pressure  
Sea Level Pressure 30.35 in    
Wind  
Wind Speed 10 mph ()    
Max Wind Speed 20 mph    
Max Gust Speed -    
Visibility 10.0 miles    
Events      
T = Trace of Precipitation, MM = Missing Value Source: Averaged Metar Reports

Daily Weather History Graph

Daily Weather History Graph

Search for Another Location

Airport:

Trip Planner

Search our weather history database for the weather conditions in past years. The results will help you decide how hot, cold, wet, or windy it might be!

Date:

Astronomy

Nov. 06, 2012 Rise Set
Actual Time 6:55 AM MST 4:57 PM MST
Civil Twilight 6:25 AM MST 5:27 PM MST
Nautical Twilight 5:51 AM MST 6:01 PM MST
Astronomical Twilight 5:17 AM MST 6:34 PM MST
Moon 11:41 PM MST (11/6) 12:47 PM MST (11/6)
Length of Visible Light 11h 01m
Length of Day
10h 01m
Waning Gibbous, 52% of the Moon is Illuminated
Nov 6
Waning Gibbous
Nov 6
Last Quarter
Nov 13
New
Nov 20
First Quarter
Nov 28
Full

Hourly Weather History & Observations

Time (MST) Temp. Windchill Dew Point Humidity Pressure Visibility Wind Dir Wind Speed Gust Speed Precip Events Conditions
12:15 AM 50.0 °F - 17.6 °F 28% 30.34 in 10.0 mi WNW 19.6 mph - N/A   Clear
12:35 AM 50.0 °F - 15.8 °F 26% 30.34 in 10.0 mi WNW 18.4 mph - N/A   Clear
12:55 AM 50.0 °F - 15.8 °F 26% 30.35 in 10.0 mi West 16.1 mph - N/A   Clear
1:15 AM 50.0 °F - 14.0 °F 24% 30.36 in 10.0 mi West 12.7 mph - N/A   Clear
1:35 AM 50.0 °F - 14.0 °F 24% 30.36 in 10.0 mi West 9.2 mph - N/A   Clear
1:55 AM 50.0 °F - 12.2 °F 22% 30.36 in 10.0 mi WNW 10.4 mph - N/A   Clear
2:15 AM 50.0 °F - 12.2 °F 22% 30.36 in 10.0 mi WNW 10.4 mph - N/A   Clear
2:35 AM 50.0 °F - 12.2 °F 22% 30.36 in 10.0 mi WNW 6.9 mph - N/A   Clear
2:55 AM 50.0 °F - 12.2 °F 22% 30.36 in 10.0 mi WNW 8.1 mph - N/A   Clear
3:15 AM 50.0 °F - 12.2 °F 22% 30.36 in 10.0 mi NW 9.2 mph - N/A   Clear
3:35 AM 50.0 °F - 14.0 °F 24% 30.36 in 10.0 mi NW 4.6 mph - N/A   Clear
3:55 AM 50.0 °F - 14.0 °F 24% 30.36 in 10.0 mi NNW 5.8 mph - N/A   Clear
4:35 AM 42.8 °F 35.1 °F 21.2 °F 42% 30.36 in 10.0 mi North 16.1 mph - N/A   Clear
4:55 AM 42.8 °F 35.4 °F 23.0 °F 46% 30.36 in 10.0 mi North 15.0 mph - N/A   Clear
5:15 AM 42.8 °F 34.3 °F 24.8 °F 49% 30.36 in 10.0 mi NNW 19.6 mph - N/A   Clear
5:35 AM 42.8 °F 35.4 °F 26.6 °F 53% 30.36 in 10.0 mi NNW 15.0 mph - N/A   Clear
5:55 AM 42.8 °F 35.4 °F 26.6 °F 53% 30.36 in 10.0 mi NNW 15.0 mph - N/A   Clear
6:15 AM 41.0 °F 33.1 °F 26.6 °F 57% 30.36 in 10.0 mi NNW 15.0 mph - N/A   Clear
6:35 AM 42.8 °F 35.4 °F 26.6 °F 53% 30.37 in 10.0 mi NNW 15.0 mph - N/A   Clear
6:55 AM 41.0 °F 33.1 °F 26.6 °F 57% 30.37 in 10.0 mi NNW 15.0 mph - N/A   Clear
7:15 AM 42.8 °F 36.2 °F 26.6 °F 53% 30.38 in 10.0 mi NNW 12.7 mph - N/A   Clear
7:35 AM 42.8 °F 40.1 °F 26.6 °F 53% 30.39 in 10.0 mi NNW 4.6 mph - N/A   Clear
7:55 AM 44.6 °F 42.2 °F 26.6 °F 49% 30.39 in 10.0 mi NNW 4.6 mph - N/A   Clear
8:15 AM 44.6 °F 43.1 °F 26.6 °F 49% 30.40 in 10.0 mi NNW 3.5 mph - N/A   Clear
8:35 AM 44.6 °F 43.1 °F 28.4 °F 53% 30.40 in 10.0 mi North 3.5 mph - N/A   Clear
8:55 AM 44.6 °F 43.1 °F 28.4 °F 53% 30.40 in 10.0 mi ENE 3.5 mph - N/A   Clear
9:15 AM 44.6 °F 43.1 °F 28.4 °F 53% 30.40 in 10.0 mi ESE 3.5 mph - N/A   Clear
9:35 AM 44.6 °F 41.4 °F 28.4 °F 53% 30.40 in 10.0 mi SE 5.8 mph - N/A   Clear
9:55 AM 44.6 °F 40.2 °F 28.4 °F 53% 30.39 in 10.0 mi ESE 8.1 mph - N/A   Clear
10:15 AM 46.4 °F 40.1 °F 28.4 °F 50% 30.39 in 10.0 mi SE 15.0 mph - N/A   Clear
10:35 AM 46.4 °F 40.1 °F 28.4 °F 50% 30.38 in 10.0 mi SE 15.0 mph - N/A   Clear
10:55 AM 46.4 °F 40.1 °F 28.4 °F 50% 30.38 in 10.0 mi SE 15.0 mph - N/A   Clear
11:15 AM 46.4 °F 40.1 °F 26.6 °F 46% 30.38 in 10.0 mi SE 15.0 mph - N/A   Clear
11:35 AM 46.4 °F 40.4 °F 26.6 °F 46% 30.37 in 10.0 mi SE 13.8 mph - N/A   Clear
11:55 AM 48.2 °F - 26.6 °F 43% 30.36 in 10.0 mi SE 15.0 mph - N/A   Clear
12:15 PM 48.2 °F - 26.6 °F 43% 30.36 in 10.0 mi SE 13.8 mph - N/A   Clear
12:35 PM 48.2 °F - 26.6 °F 43% 30.36 in 10.0 mi SE 12.7 mph - N/A   Clear
12:55 PM 50.0 °F - 26.6 °F 40% 30.35 in 10.0 mi SSE 8.1 mph - N/A   Clear
1:15 PM 50.0 °F - 26.6 °F 40% 30.34 in 10.0 mi SE 6.9 mph - N/A   Clear
1:35 PM 50.0 °F - 26.6 °F 40% 30.34 in 10.0 mi SE 8.1 mph - N/A   Clear
1:55 PM 50.0 °F - 26.6 °F 40% 30.34 in 10.0 mi SE 5.8 mph - N/A   Clear
2:15 PM 50.0 °F - 26.6 °F 40% 30.34 in 10.0 mi SE 4.6 mph - N/A   Clear
2:35 PM 50.0 °F - 24.8 °F 37% 30.34 in 10.0 mi Calm Calm - N/A   Clear
3:15 PM 51.8 °F - 21.2 °F 30% 30.34 in 10.0 mi Calm Calm - N/A   Clear
3:35 PM 51.8 °F - 23.0 °F 33% 30.34 in 10.0 mi SE 3.5 mph - N/A   Clear
3:55 PM 51.8 °F - 23.0 °F 33% 30.33 in 10.0 mi Calm Calm - N/A   Clear
4:15 PM 51.8 °F - 21.2 °F 30% 30.34 in 10.0 mi Calm Calm - N/A   Clear
4:35 PM 51.8 °F - 23.0 °F 33% 30.34 in 10.0 mi Calm Calm - N/A   Clear
5:15 PM 51.8 °F - 23.0 °F 33% 30.33 in 10.0 mi West 3.5 mph - N/A   Clear
5:35 PM 51.8 °F - 23.0 °F 33% 30.33 in 10.0 mi South 5.8 mph - N/A   Clear
5:55 PM 51.8 °F - 23.0 °F 33% 30.33 in 10.0 mi South 5.8 mph - N/A   Clear
6:15 PM 50.0 °F - 23.0 °F 35% 30.33 in 10.0 mi SSE 6.9 mph - N/A   Clear
6:35 PM 50.0 °F - 23.0 °F 35% 30.33 in 10.0 mi SSW 12.7 mph - N/A   Clear
6:55 PM 51.8 °F - 23.0 °F 33% 30.33 in 10.0 mi South 11.5 mph - N/A   Clear
7:15 PM 50.0 °F - 24.8 °F 37% 30.32 in 10.0 mi SSE 12.7 mph - N/A   Clear
7:35 PM 50.0 °F - 24.8 °F 37% 30.32 in 10.0 mi SSE 6.9 mph - N/A   Clear
7:55 PM 50.0 °F - 24.8 °F 37% 30.31 in 10.0 mi SE 6.9 mph - N/A   Clear
8:15 PM 48.2 °F - 23.0 °F 37% 30.31 in 10.0 mi SE 9.2 mph - N/A   Clear
8:35 PM 48.2 °F - 23.0 °F 37% 30.30 in 10.0 mi SSE 8.1 mph - N/A   Clear
9:15 PM 48.2 °F - 23.0 °F 37% 30.29 in 10.0 mi SE 11.5 mph - N/A   Clear
9:35 PM 46.4 °F 41.9 °F 23.0 °F 40% 30.29 in 10.0 mi SE 9.2 mph - N/A   Clear
10:15 PM 46.4 °F 41.9 °F 23.0 °F 40% 30.29 in 10.0 mi SE 9.2 mph - N/A   Clear
10:35 PM 46.4 °F 41.9 °F 23.0 °F 40% 30.28 in 10.0 mi SE 9.2 mph - N/A   Clear
11:15 PM 44.6 °F 39.2 °F 23.0 °F 43% 30.26 in 10.0 mi SE 10.4 mph - N/A   Clear
11:35 PM 44.6 °F 39.2 °F 23.0 °F 43% 30.26 in 10.0 mi SSE 10.4 mph - N/A   Clear
11:55 PM 44.6 °F 39.2 °F 24.8 °F 46% 30.25 in 10.0 mi SSE 10.4 mph - N/A   Clear